Location: Holcomb Observatory and Planetarium
(39.8415°N, 86.1714°W)
Time: 09:15:05
(UTC-05:00)

ISS - Visible Passes

Search period start: 25 January 2015 00:00
Search period end: 04 February 2015 00:00
Orbit: 402 x 410 km, 51.6° (Epoch: 25 January)

Date Brightness Start Highest point End Pass type
(mag) Time Alt. Az. Time Alt. Az. Time Alt. Az.
25 Jan -1.0 05:44:50 22° NE 05:44:50 22° NE 05:46:45 10° E visible
25 Jan -2.6 07:17:32 11° WNW 07:20:31 41° SW 07:23:37 10° SSE visible
26 Jan -3.4 06:28:05 51° WNW 06:28:49 83° SW 06:32:07 10° SE visible
27 Jan -1.0 05:38:43 24° E 05:38:43 24° E 05:40:16 10° ESE visible
27 Jan -1.3 07:11:25 11° W 07:13:18 16° SW 07:15:25 10° S visible
28 Jan -2.1 06:22:07 29° SSW 06:22:07 29° SSW 06:24:37 10° SSE visible
29 Jan -0.3 05:32:55 12° SE 05:32:55 12° SE 05:33:14 10° SE visible
02 Feb -0.4 20:15:32 10° SSW 20:15:45 11° SSW 20:15:45 11° SSW visible
03 Feb -1.7 19:24:25 10° S 19:26:37 20° SE 19:26:37 20° SE visible
